Lapse_Rate
3.7 4.7 4.3 2.6 3.1 3.1 2.6 2.5 1.7 0.4 0.5 0.6 0.4 -0.2 -0.6 0.6 0.6 0.4 0.7 0.8 0.5 -0.0
2.9 4.2 3.2 2.6 2.1 3.5 2.8 2.0 1.6 0.4 0.3 0.1 -0.5 -0.8 -1.3 0.1 0.6 0.2 -0.0 0.5 1.1 0.9
2.8 3.1 3.7 2.5 1.8 2.1 2.3 1.9 1.2 0.5 0.1 -0.2 -0.2 -0.9 -0.3 0.5 0.1 0.6 -0.5 -0.9 -0.5 0.5
2.3 2.8 2.7 2.8 2.0 1.3 0.8 0.6 0.9 1.3 1.1 0.6 0.8 0.7 0.1 -1.2 0.9 0.5 0.5 -0.1 0.4 0.7
2.2 2.2 1.9 1.1 0.8 0.3 -0.2 -0.7 0.0 1.0 1.6 1.7 1.6 1.3 1.1 0.8 1.2 0.6 0.1 0.3 0.9 0.2
2.0 1.8 1.0 0.5 0.1 -0.0 0.4 0.2 0.5 2.3 1.8 1.3 1.4 1.8 2.3 1.8 1.8 1.4 0.8 0.7 1.2 1.4
1.7 1.5 1.7 1.2 1.1 1.7 2.6 3.0 2.6 2.3 2.1 0.8 0.9 0.6 0.6 1.1 1.3 1.3 1.4 2.1 1.8 1.8
3.3 2.2 2.0 3.0 2.9 2.4 2.0 1.7 1.4 0.9 0.4 0.1 0.5 1.5 1.1 1.0 0.9 1.0 0.9 0.3 0.3 -0.5
3.8 3.0 2.0 1.5 1.2 1.1 0.8 1.1 1.0 1.4 1.7 2.0 2.5 2.9 2.9 1.5 0.8 0.7 0.2 0.2 0.4 0.1
3.4 2.8 2.6 2.2 1.8 1.6 1.5 1.7 2.2 2.9 3.2 3.4 4.1 4.1 3.1 2.4 0.9 0.6 0.6 0.8 1.4 1.5
3.1 2.6 2.8 2.9 2.4 2.2 2.3 2.7 3.0 3.4 3.7 3.7 3.5 4.0 3.1 1.9 0.7 0.5 0.6 0.6 2.9 2.4
3.8 3.4 3.0 2.1 2.0 2.0 1.7 1.8 1.8 1.6 2.0 1.6 2.1 2.9 1.7 0.8 0.4 0.4 2.4 2.5 3.0 3.4
2.9 2.9 2.5 2.5 2.4 2.3 2.1 2.0 2.0 2.0 2.0 3.0 2.5 3.1 1.8 3.1 4.1 2.5 2.7 3.2 4.2 5.5
2.9 2.3 2.2 2.1 2.1 1.8 1.8 1.4 0.6 0.6 1.1 1.4 2.8 3.5 4.7 3.7 3.7 4.4 4.6 5.1 5.3 5.8
Wind_Speed
11 8 9 8 8 8 9 10 12 13 13 14 14 13 12 8 7 8 6 8 5 4
6 8 6 7 6 7 9 7 11 13 13 13 13 13 12 9 10 9 7 7 8 6
6 6 8 7 8 10 9 9 9 11 12 12 12 10 11 9 10 10 6 6 7 6
8 8 7 8 9 8 7 8 9 11 11 12 12 12 10 10 10 11 9 6 8 6
10 9 8 7 7 6 7 8 9 10 10 11 11 10 11 11 10 12 11 8 7 7
6 7 7 5 3 5 6 8 8 10 10 10 9 9 8 10 10 9 10 9 7 5
7 5 5 1 4 5 7 8 8 9 10 11 12 13 13 13 12 11 9 8 8 7
5 7 7 7 8 9 10 9 10 12 12 13 12 9 13 13 13 11 10 8 5 7
8 10 9 10 10 11 10 10 11 10 11 11 9 23 20 14 11 9 9 8 4 3
9 10 9 9 10 10 10 11 11 11 11 12 11 22 22 18 9 8 6 6 4 3
9 9 8 9 10 10 10 11 10 11 11 11 11 18 19 17 9 7 6 6 5 4
9 9 10 10 10 9 11 11 10 10 9 10 11 17 16 11 7 8 7 5 3 1
9 9 10 10 9 9 10 10 8 10 8 11 8 13 11 6 6 7 4 3 1 3
9 9 8 8 7 9 9 10 9 8 7 7 4 3 9 8 5 4 3 1 0 1
Wind_Direction
246 247 259 242 222 212 208 214 215 203 198 197 196 191 185 184 182 172 170 168 164 165
263 238 238 236 231 237 224 215 198 198 201 198 191 187 179 178 174 163 153 162 164 154
291 260 247 250 237 231 221 200 186 189 193 190 189 180 176 172 161 150 144 133 127 122
297 288 267 245 244 231 205 187 182 185 180 181 180 175 165 157 151 140 136 125 125 104
301 287 263 250 247 214 191 172 170 165 167 168 168 168 164 157 149 137 124 114 104 106
325 325 306 274 207 193 176 162 149 156 154 150 143 135 126 115 104 98 101 107 116 122
342 356 329 237 160 149 149 135 133 128 122 120 115 116 112 107 100 92 85 83 89 89
52 64 69 73 81 84 85 91 100 106 108 113 113 116 113 111 111 108 110 97 95 96
46 69 72 81 86 89 94 97 100 100 105 103 107 115 113 111 109 109 113 111 123 133
49 61 63 74 82 88 94 93 92 96 96 95 102 113 114 113 110 113 114 132 146 150
58 63 68 78 85 88 88 92 96 93 96 98 103 109 109 102 92 95 103 105 114 101
52 65 67 66 73 81 86 80 79 79 83 91 88 101 107 114 105 102 126 134 119 138
59 61 71 71 68 74 77 79 82 78 69 84 90 109 105 118 118 108 102 115 151 297
59 64 64 73 70 74 79 80 70 70 66 72 95 166 134 111 93 117 125 114 338 296